Flag for Japan Weather past 2 weeks in Nagasaki, Japan

Now
75 °F

Mild.


Feels Like: 74 °F
Forecast: 75 / 83 °F
Wind: 1 mph from East

Location: Nagasaki

Current Time: Aug 23, 2014 at 2:49:08 AM

Latest Report: Aug 23, 2014 at 2:00 AM


Visibility: N/A

Pressure: 29.87 "Hg

Humidity: 90%

Dew point: 72 °F

Location of NagasakiLocation

Historic Weather in Nagasaki — Graph

°F

Nagasaki temperature yesterday

Maximum temperature yesterday: 84 °F (at 1:00 PM)
Minimum temperature yesterday: 75 °F (at 8:00 AM)
Average temperature yesterday: 79 °F

Past Weeks' High & Low Weather Summary

 TemperatureHumidityPressure
High89 °F (Aug 8, 3:00 PM)97% (Aug 21, 11:00 PM)29.96 "Hg (Aug 21, 11:00 PM)
Low74 °F (Aug 12, 4:00 AM)57% (Aug 9, 11:00 AM)29.26 "Hg (Aug 9, 3:00 PM)
Average80 °F81%29.73 "Hg
* Reported Aug 8 1:00 AM — Aug 23 1:00 AM, Nagasaki, Weather by CustomWeather, © 2014

Note: Actual official high and low records may vary slightly from our data, if they occured in-between our weather recording intervals... More about our weather records

Advertising

Nagasaki weather history for previous 24 hours

 ConditionsComfort  
Time TempWeatherWind HumidityBarometerVisibility
1:00 AM
Aug 23
75 °FMild.No wind90%29.88 "HgN/A
12:00 AM75 °FMild.2 mph91%29.88 "HgN/A
11:00 PM
Aug 22
75 °FMild.1 mph91%29.87 "HgN/A
10:00 PM76 °FMild.2 mph87%29.87 "HgN/A
9:00 PM78 °FPassing clouds.2 mph84%29.89 "Hg12 mi
8:00 PM78 °FWarm.3 mph82%29.87 "HgN/A
7:00 PM79 °FWarm.3 mph80%29.85 "HgN/A
6:00 PM80 °FPassing clouds.5 mph77%29.85 "Hg16 mi
5:00 PM82 °FWarm.5 mph75%29.85 "HgN/A
4:00 PM82 °FWarm.7 mph75%29.84 "HgN/A
3:00 PM82 °FOvercast.8 mph75%29.84 "Hg16 mi
2:00 PM82 °FWarm.8 mph77%29.85 "HgN/A
1:00 PM84 °FWarm.3 mph73%29.85 "HgN/A
12:00 PM82 °FOvercast.3 mph76%29.92 "Hg12 mi
11:00 AM81 °FWarm.2 mph78%29.93 "HgN/A
10:00 AM78 °FWarm.6 mph84%29.93 "HgN/A
9:00 AM76 °FLow clouds.6 mph88%29.91 "Hg12 mi
8:00 AM75 °FMild.7 mph93%29.90 "HgN/A
7:00 AM76 °FMild.6 mph92%29.89 "HgN/A
6:00 AM77 °FThundershowers. Low clouds.8 mph92%29.87 "Hg9 mi
5:00 AM77 °FWarm.5 mph93%29.87 "HgN/A
4:00 AM80 °FWarm.10 mph91%29.86 "HgN/A
3:00 AM80 °FThunderstorms. Overcast.6 mph88%29.86 "Hg12 mi
2:00 AM79 °FWarm.5 mph89%29.86 "HgN/A
Weather by CustomWeather, © 2014

See weather overviewHow to use our weather pages